Wind_Speed
3 2 4 3 3 1 2 3 1 3 3 3 4 3 4 4 1 1 5 18 25 30 31 29 28 30 30 29 27 25 24 23 23 24 24 23 23 24 25 26 27 27 27 27 25 23 22 19 18
1 5 3 1 2 3 3 2 3 1 4 5 4 3 6 3 4 3 5 19 26 32 31 30 29 28 27 26 24 23 23 24 25 25 24 25 26 27 28 27 28 28 27 26 24 21 19 17 17
4 6 2 2 2 5 2 3 3 3 3 4 2 8 6 3 4 0 4 18 29 33 32 30 30 29 27 24 23 23 25 27 27 27 27 28 28 29 29 27 27 27 26 24 21 20 18 17 16
6 3 4 2 6 4 4 2 1 6 2 4 7 6 4 5 3 0 12 20 28 31 32 31 32 31 29 27 25 26 28 28 28 29 31 31 30 30 28 27 25 24 24 23 22 19 18 16 13
5 2 1 1 4 4 5 3 3 3 3 3 5 6 3 3 2 11 16 19 27 31 31 32 32 30 27 27 28 29 30 29 30 33 34 32 30 29 28 27 26 24 23 22 21 19 16 13 11
2 2 1 2 4 5 4 2 5 3 3 4 3 7 4 2 4 12 15 18 20 28 31 30 30 29 29 28 28 31 31 31 32 35 34 32 30 29 27 25 24 22 21 21 19 17 15 15 14
2 2 2 2 3 4 2 4 3 3 6 1 5 4 5 4 7 9 13 14 19 21 29 29 35 32 27 29 27 27 30 31 34 34 33 31 28 27 25 23 21 19 18 16 14 14 14 14 12
2 2 2 3 3 3 1 3 3 2 3 5 5 3 4 11 9 11 11 12 14 16 28 37 37 38 40 26 24 23 28 32 33 32 31 29 26 24 22 19 17 15 13 12 13 13 11 12 12
2 2 2 3 3 2 3 4 4 4 5 3 3 6 6 21 16 12 11 11 15 16 25 36 42 44 37 27 24 22 25 31 32 30 29 27 25 23 20 16 15 12 11 9 9 9 10 12 13
3 1 4 5 3 4 2 2 8 3 4 3 6 9 17 18 15 12 11 12 18 26 36 49 44 42 39 33 25 24 25 27 29 29 27 24 22 20 17 15 12 9 8 7 5 6 7 10 12
3 4 5 8 9 5 2 4 5 8 4 8 11 21 20 17 14 12 13 19 29 34 39 38 44 47 45 38 33 30 23 26 28 27 26 24 21 18 16 12 10 9 8 5 2 2 6 9 12
3 10 8 4 2 5 5 7 4 7 3 4 15 20 19 13 13 11 19 23 28 30 30 32 39 43 41 38 25 24 22 25 28 27 24 22 19 17 14 12 12 9 6 3 2 2 6 9 12
4 3 3 9 6 5 9 4 4 3 3 13 18 17 17 15 16 16 17 19 26 30 34 34 39 40 36 38 23 22 21 25 25 24 23 20 17 15 14 13 9 9 7 5 3 4 6 9 12
3 0 2 3 5 5 3 3 0 4 15 19 17 18 18 16 17 21 23 25 32 38 38 36 40 44 34 21 22 23 24 26 25 23 19 17 15 15 13 12 12 10 9 7 4 6 7 11 12
3 2 2 1 3 3 6 2 2 9 16 17 17 20 16 17 19 20 22 26 29 27 31 37 30 27 22 19 19 21 23 25 24 21 19 18 17 16 14 14 14 13 10 8 8 8 9 9 10
1 3 2 1 2 1 1 3 4 13 15 14 16 15 17 17 18 20 24 26 27 36 35 32 26 22 22 23 21 22 25 24 22 21 22 18 17 17 15 16 14 12 13 11 11 11 9 8 10
3 2 2 0 9 3 2 3 7 15 13 12 14 16 16 17 20 20 26 32 39 37 33 30 26 22 21 22 22 23 24 24 22 19 17 18 17 16 14 14 11 13 13 15 13 10 8 8 10
4 3 3 4 2 4 5 10 9 18 15 14 12 14 17 20 25 24 26 34 39 34 29 26 24 22 21 22 23 24 25 25 23 21 20 17 16 15 12 14 15 16 17 16 14 11 9 9 9
1 0 4 1 4 2 3 6 9 17 14 13 14 15 18 25 25 26 26 30 34 35 29 28 26 24 25 27 27 28 29 28 27 23 21 18 16 15 15 17 18 19 19 16 15 11 9 8 9
3 2 3 2 2 2 4 4 5 16 21 21 19 19 22 22 22 29 29 30 32 32 32 30 27 26 25 26 26 28 28 27 26 25 25 23 18 18 18 19 20 21 20 17 14 11 10 7 6
3 3 2 2 2 2 3 3 2 5 10 15 19 20 20 24 27 30 33 33 32 34 34 31 30 28 26 26 26 28 28 28 31 28 26 21 20 20 18 19 20 20 18 17 14 13 10 7 7
3 4 4 4 2 2 2 3 3 4 10 13 23 24 28 28 29 28 31 33 35 35 33 32 31 30 29 29 28 29 31 32 31 28 24 20 21 21 20 21 21 20 19 17 17 15 12 9 11
4 3 0 2 3 0 0 2 3 1 6 15 22 30 30 31 31 32 33 34 33 31 31 30 31 31 31 31 31 31 32 33 31 28 22 21 22 23 24 24 23 21 20 21 18 17 14 17 15
3 2 5 4 2 1 1 3 4 4 3 3 13 24 30 36 36 34 34 32 32 31 32 31 31 32 32 31 31 32 31 32 32 31 27 24 25 26 25 25 24 23 23 22 22 20 18 15 19
2 2 1 0 1 3 4 3 7 4 7 6 10 13 26 38 40 38 36 36 35 34 33 34 33 32 32 31 30 30 30 35 35 36 28 26 27 27 26 27 27 27 24 23 27 21 15 20 19
5 5 3 3 2 0 1 4 3 3 9 10 11 12 12 24 38 42 41 39 37 35 34 34 34 34 32 32 31 30 27 34 35 37 29 25 27 23 25 29 28 24 22 24 22 16 19 15 12
4 4 2 6 2 1 2 3 8 2 2 5 9 7 4 11 23 33 38 40 39 36 34 34 33 32 32 31 31 31 30 32 33 35 34 28 29 28 27 27 30 27 27 21 18 15 12 8 8
2 6 3 1 4 3 2 3 3 4 3 4 5 5 5 5 9 16 23 28 31 33 31 31 31 28 28 25 25 32 33 32 34 33 31 29 29 27 26 33 33 26 16 14 12 7 5 9 17
3 2 5 3 1 2 1 3 5 4 2 3 3 3 1 2 2 5 8 11 15 20 22 23 26 25 28 28 26 26 28 31 33 30 27 27 26 30 33 31 28 23 16 14 8 9 18 16 14
3 6 5 3 4 0 1 5 3 5 6 8 7 3 3 6 5 4 6 5 6 9 12 15 18 20 22 23 24 24 23 20 23 25 20 24 24 26 27 28 22 20 18 19 18 21 14 12 14
Wind_Direction
258 223 175 189 216 245 215 229 305 282 226 202 232 240 131 80 117 257 331 180 180 175 172 173 169 165 164 162 159 155 149 147 146 144 142 137 134 131 127 122 117 113 114 114 112 108 105 104 99
195 157 151 173 207 202 219 246 196 298 343 348 15 17 70 67 9 283 122 173 177 173 173 174 171 167 165 162 156 149 147 147 144 143 140 137 136 131 126 122 118 112 109 110 113 111 107 102 99
177 166 174 123 169 224 224 213 287 87 100 109 55 44 58 318 345 10 195 172 176 173 175 174 172 167 164 160 153 150 150 147 146 143 142 139 136 132 127 123 117 115 113 111 109 107 106 103 91
170 163 59 237 246 250 240 250 224 139 112 116 121 78 81 5 331 283 163 168 173 176 176 175 175 169 162 158 156 154 152 148 145 143 140 138 137 132 127 123 120 115 112 111 106 106 103 97 91
171 96 102 19 289 274 250 272 139 162 159 50 155 129 92 39 62 145 162 172 181 180 179 178 173 164 159 160 159 156 153 149 146 143 141 140 137 129 126 122 119 115 113 108 107 105 102 96 95
124 94 91 286 259 261 292 186 124 160 177 146 119 120 103 107 168 165 175 172 187 183 179 178 169 165 159 156 158 154 152 148 147 145 144 140 135 130 127 127 123 121 118 112 108 103 96 91 84
151 122 162 231 257 295 301 163 172 199 167 107 148 112 132 153 194 190 190 195 186 196 171 171 162 151 147 154 154 152 144 146 147 149 144 140 138 133 131 131 128 127 119 111 105 97 87 78 70
159 98 156 227 249 279 212 154 140 102 120 136 141 175 120 191 199 203 194 204 195 181 183 149 153 148 143 145 146 148 146 148 148 149 148 145 141 137 139 138 136 128 122 119 106 92 80 64 57
141 79 237 264 223 214 194 181 150 115 120 102 184 167 174 168 171 192 193 199 207 196 166 164 148 140 133 144 142 150 149 145 148 151 150 150 149 148 147 146 142 138 131 117 105 83 62 46 37
143 172 233 213 225 289 250 220 147 148 141 119 126 146 151 164 178 190 197 156 148 156 143 138 140 140 144 142 148 147 142 150 154 155 154 155 156 156 155 156 151 142 141 126 99 65 49 31 23
180 226 236 262 255 236 228 184 153 138 218 193 171 155 157 162 163 172 172 176 163 150 145 149 143 152 150 159 151 140 162 159 158 160 164 166 165 165 169 158 162 171 154 137 113 49 14 11 8
227 256 258 294 253 176 180 148 131 181 315 270 157 156 161 156 164 177 167 152 151 154 151 146 145 146 146 147 156 168 170 171 168 167 170 172 173 173 171 180 180 171 175 215 224 11 354 353 354
220 287 273 270 231 149 145 149 147 52 86 141 149 158 162 158 162 157 162 160 154 147 146 148 146 153 150 155 170 174 179 175 173 174 176 177 182 181 186 185 191 202 212 220 246 318 331 335 338
222 227 211 154 139 131 123 133 189 136 152 144 161 164 169 163 171 157 147 151 151 151 150 149 162 156 160 172 177 185 187 181 180 179 177 180 185 194 194 205 212 222 225 231 249 285 309 313 316
266 276 112 135 113 92 144 222 249 179 164 158 161 171 179 172 185 183 182 169 164 172 167 160 155 163 175 185 192 200 194 188 185 185 192 195 197 203 211 225 232 228 232 242 252 265 283 296 321
199 58 4 36 84 26 4 265 137 174 176 176 175 166 182 181 189 188 182 182 171 160 166 176 180 180 181 189 199 200 197 197 194 199 208 204 208 216 221 228 235 245 246 239 245 257 273 295 325
353 130 197 119 198 154 195 302 162 179 189 197 191 171 184 180 192 190 177 174 170 170 175 185 192 194 199 204 208 210 207 204 208 212 214 214 219 219 226 241 241 243 244 244 243 252 268 302 321
190 180 219 175 127 214 209 254 169 184 200 211 204 178 188 188 192 187 184 183 183 185 189 198 207 209 213 213 212 212 212 212 217 223 222 218 221 221 243 245 232 239 241 239 242 246 267 302 316
166 128 276 151 203 183 249 255 200 192 203 209 211 202 197 202 198 195 191 192 196 200 205 208 214 213 215 212 212 214 215 218 222 226 226 227 226 230 247 245 236 236 237 236 235 243 279 295 313
244 158 258 262 24 154 278 299 204 188 208 208 204 215 210 206 201 205 206 203 206 212 218 220 219 218 217 216 217 220 220 223 230 236 232 233 222 236 246 243 236 232 229 227 234 255 266 285 311
221 189 203 286 336 226 292 326 198 207 228 217 222 224 224 215 211 208 211 214 216 219 221 222 221 221 222 222 220 224 225 232 235 240 237 231 226 239 248 238 230 227 223 227 240 254 259 266 302
240 221 175 206 240 297 356 285 274 214 225 224 220 221 223 223 223 216 214 218 219 222 223 225 227 226 227 228 226 230 232 237 245 251 244 234 232 245 245 232 225 223 225 233 246 249 249 279 299
226 180 168 108 89 188 173 214 263 182 233 233 223 223 225 223 221 221 220 221 222 223 224 226 230 232 234 234 234 237 241 244 251 255 245 233 239 244 241 229 223 226 231 239 243 245 259 292 304
107 98 46 55 105 204 213 214 282 236 222 274 245 232 227 225 226 227 227 229 227 227 227 227 230 232 235 237 237 240 246 250 252 253 250 241 239 239 233 225 226 228 236 243 242 254 270 292 313
112 93 268 154 165 216 131 166 246 250 264 255 284 253 234 230 226 227 229 229 230 231 232 232 233 236 238 240 242 244 250 251 251 253 250 247 239 235 233 230 228 231 237 265 255 260 270 298 304
183 196 171 220 198 243 177 227 239 229 293 291 301 285 245 233 230 230 231 234 236 236 237 238 238 238 243 247 249 247 255 254 253 254 252 247 246 243 242 235 236 245 251 259 244 261 290 294 295
167 202 136 108 48 287 266 276 281 340 314 334 344 356 280 242 234 235 235 236 241 243 244 244 242 243 247 253 254 253 256 255 258 261 259 252 246 237 238 244 236 240 244 227 249 282 283 286 312
186 148 128 35 175 218 255 271 246 326 324 351 349 337 317 293 247 238 239 241 244 247 249 250 249 251 254 256 269 261 261 262 264 265 265 260 252 237 235 236 229 232 226 245 268 246 250 287 296
155 200 59 120 148 193 199 245 214 232 237 287 288 275 310 352 300 252 243 246 248 252 254 256 256 255 253 252 259 270 269 266 266 266 267 259 248 235 235 233 230 230 229 263 212 232 281 302 281
172 177 162 165 200 272 269 249 220 245 265 282 265 227 175 138 139 157 170 188 213 236 245 248 249 251 257 260 264 268 271 267 264 260 256 248 246 238 239 229 228 228 238 219 252 294 288 272 274
Height
1517 1516 1517 1518 1521 1520 1518 1513 1513 1510 1511 1512 1511 1509 1509 1513 1512 1516 1515 1516 1520 1523 1526 1530 1536 1537 1541 1543 1546 1549 1551 1553 1556 1559 1562 1562 1565 1567 1569 1570 1571 1573 1574 1574 1576 1578 1579 1580 1582
1516 1516 1517 1517 1520 1518 1511 1513 1509 1510 1512 1511 1510 1511 1511 1515 1516 1515 1513 1517 1519 1522 1527 1531 1535 1537 1541 1544 1547 1549 1551 1554 1556 1560 1562 1563 1566 1568 1570 1572 1573 1574 1577 1578 1578 1580 1581 1583 1583
1516 1515 1517 1517 1523 1514 1512 1509 1508 1510 1510 1508 1510 1510 1512 1519 1517 1515 1514 1516 1517 1522 1526 1531 1534 1537 1541 1545 1547 1549 1552 1554 1557 1560 1562 1565 1568 1570 1572 1576 1577 1578 1578 1580 1581 1582 1584 1585 1584
1514 1515 1519 1518 1518 1516 1511 1507 1509 1510 1511 1509 1510 1515 1518 1519 1517 1514 1515 1516 1519 1522 1526 1529 1532 1536 1540 1544 1547 1549 1552 1554 1558 1561 1564 1566 1570 1572 1574 1578 1579 1580 1580 1582 1582 1586 1587 1586 1587
1515 1514 1518 1523 1521 1514 1509 1508 1508 1509 1509 1511 1511 1515 1518 1519 1515 1515 1516 1518 1520 1523 1525 1528 1532 1537 1542 1545 1546 1549 1552 1555 1559 1563 1565 1567 1570 1574 1578 1579 1582 1583 1583 1583 1585 1586 1587 1587 1588
1515 1516 1519 1521 1518 1510 1508 1508 1507 1509 1508 1509 1511 1511 1516 1518 1517 1517 1518 1519 1521 1522 1524 1528 1534 1539 1542 1546 1551 1549 1552 1555 1560 1565 1566 1569 1572 1575 1578 1581 1583 1584 1585 1585 1587 1588 1589 1588 1589
1514 1515 1519 1520 1515 1510 1508 1507 1507 1508 1507 1509 1508 1510 1515 1517 1518 1519 1519 1521 1521 1524 1524 1526 1531 1537 1545 1549 1553 1555 1553 1557 1562 1568 1571 1573 1574 1576 1580 1583 1584 1586 1587 1588 1589 1589 1591 1590 1590
1514 1515 1519 1516 1513 1510 1507 1507 1506 1508 1511 1510 1509 1509 1510 1514 1518 1520 1520 1521 1523 1523 1525 1524 1526 1527 1538 1550 1554 1559 1556 1558 1563 1570 1574 1577 1579 1579 1581 1584 1585 1587 1588 1589 1589 1589 1590 1590 1590
1514 1517 1518 1514 1512 1505 1506 1505 1507 1507 1508 1509 1510 1509 1509 1515 1518 1518 1519 1521 1522 1524 1525 1524 1527 1530 1540 1549 1553 1560 1561 1559 1564 1571 1575 1578 1580 1582 1584 1586 1587 1589 1589 1590 1591 1590 1591 1591 1590
1515 1517 1512 1507 1506 1506 1505 1505 1504 1506 1509 1511 1511 1511 1512 1515 1517 1518 1520 1521 1522 1524 1524 1518 1528 1533 1540 1548 1554 1561 1562 1563 1567 1572 1576 1579 1581 1583 1585 1587 1588 1589 1590 1590 1591 1591 1591 1590 1591
1514 1510 1504 1502 1504 1504 1504 1505 1503 1504 1506 1506 1508 1510 1513 1515 1517 1519 1521 1521 1522 1523 1527 1530 1528 1535 1538 1551 1555 1557 1564 1568 1570 1573 1575 1579 1580 1583 1586 1587 1589 1590 1590 1591 1591 1591 1592 1590 1589
1511 1505 1503 1501 1501 1502 1502 1502 1502 1505 1505 1505 1507 1510 1514 1516 1517 1520 1522 1523 1525 1527 1528 1531 1534 1539 1543 1552 1558 1563 1566 1569 1570 1573 1577 1579 1580 1583 1585 1587 1589 1589 1590 1592 1592 1590 1591 1591 1590
1508 1505 1501 1498 1500 1500 1501 1501 1502 1505 1505 1506 1508 1512 1514 1517 1519 1521 1523 1526 1527 1529 1534 1537 1540 1543 1548 1552 1558 1562 1565 1568 1571 1574 1577 1578 1581 1583 1585 1586 1588 1589 1590 1591 1590 1590 1591 1591 1590
1504 1504 1501 1500 1501 1503 1503 1503 1502 1506 1505 1506 1510 1513 1517 1519 1521 1523 1526 1529 1531 1533 1537 1541 1541 1545 1550 1554 1559 1563 1566 1568 1571 1574 1576 1578 1580 1584 1584 1587 1588 1588 1589 1589 1588 1590 1589 1591 1590
1502 1502 1500 1501 1502 1502 1502 1504 1503 1503 1507 1508 1509 1512 1517 1519 1521 1524 1528 1531 1534 1538 1541 1544 1547 1550 1553 1556 1559 1563 1566 1569 1570 1572 1575 1577 1579 1581 1583 1585 1586 1586 1588 1588 1588 1589 1589 1589 1587
1502 1502 1504 1499 1501 1503 1504 1502 1503 1505 1506 1507 1509 1513 1515 1517 1520 1524 1527 1530 1534 1537 1542 1545 1548 1550 1554 1557 1560 1562 1565 1568 1569 1571 1573 1576 1577 1579 1581 1582 1583 1584 1586 1585 1586 1588 1587 1587 1584
1505 1504 1506 1501 1500 1502 1505 1502 1503 1505 1507 1507 1510 1512 1514 1516 1519 1523 1526 1529 1533 1536 1540 1544 1547 1551 1553 1556 1558 1561 1563 1565 1568 1569 1571 1575 1576 1577 1579 1580 1581 1583 1584 1583 1585 1585 1586 1584 1582
1505 1503 1502 1501 1501 1503 1503 1498 1502 1503 1506 1506 1507 1510 1512 1515 1517 1521 1525 1529 1533 1536 1539 1543 1546 1548 1551 1554 1556 1558 1561 1563 1564 1567 1570 1571 1573 1575 1576 1577 1579 1580 1581 1581 1582 1582 1583 1581 1580
1503 1503 1502 1499 1497 1499 1499 1497 1497 1501 1504 1505 1506 1508 1511 1512 1516 1519 1524 1528 1532 1535 1537 1540 1543 1545 1548 1550 1552 1554 1555 1559 1561 1564 1566 1568 1569 1572 1573 1574 1575 1576 1578 1578 1580 1579 1579 1578 1578
1503 1501 1502 1501 1497 1498 1497 1493 1493 1496 1495 1498 1501 1505 1506 1510 1514 1517 1520 1523 1526 1529 1532 1536 1539 1543 1545 1547 1549 1551 1554 1556 1559 1561 1562 1563 1565 1568 1570 1571 1572 1573 1574 1576 1577 1576 1575 1576 1574
1500 1499 1499 1501 1497 1499 1495 1492 1494 1496 1497 1498 1498 1500 1504 1505 1508 1511 1514 1517 1521 1523 1526 1530 1533 1537 1541 1544 1546 1548 1551 1552 1554 1554 1557 1559 1563 1565 1566 1567 1569 1570 1571 1572 1573 1573 1573 1572 1572
1500 1494 1494 1498 1499 1502 1498 1505 1495 1492 1494 1494 1493 1495 1496 1500 1503 1507 1509 1511 1513 1518 1523 1527 1530 1533 1537 1540 1542 1543 1546 1548 1550 1552 1554 1557 1559 1560 1561 1563 1564 1566 1568 1569 1570 1569 1569 1568 1570
1494 1492 1493 1495 1499 1501 1503 1504 1489 1494 1492 1486 1486 1486 1489 1493 1497 1501 1503 1506 1511 1515 1517 1522 1525 1529 1532 1535 1537 1540 1543 1546 1547 1549 1550 1552 1554 1556 1557 1558 1560 1562 1564 1565 1565 1565 1564 1562 1565
1492 1495 1498 1502 1502 1510 1501 1501 1492 1486 1482 1480 1479 1482 1483 1486 1489 1494 1498 1503 1506 1510 1514 1517 1520 1524 1527 1530 1533 1536 1539 1541 1543 1544 1545 1547 1549 1551 1551 1553 1556 1558 1559 1560 1559 1560 1560 1560 1557
1492 1497 1506 1508 1510 1507 1503 1505 1488 1477 1477 1476 1474 1474 1474 1478 1483 1487 1491 1495 1499 1503 1507 1511 1515 1518 1521 1524 1527 1530 1533 1535 1537 1539 1540 1542 1543 1544 1546 1548 1550 1551 1552 1554 1554 1553 1556 1554 1553
1492 1493 1503 1511 1510 1503 1502 1499 1479 1475 1475 1473 1471 1467 1469 1472 1476 1480 1484 1488 1492 1497 1501 1505 1509 1513 1516 1518 1521 1524 1526 1528 1531 1532 1535 1537 1538 1539 1542 1543 1545 1547 1547 1545 1549 1550 1549 1548 1548
1490 1494 1493 1508 1522 1512 1498 1491 1477 1475 1473 1471 1467 1464 1466 1469 1471 1474 1479 1483 1486 1491 1495 1499 1503 1507 1510 1513 1515 1518 1521 1523 1525 1528 1529 1531 1532 1533 1536 1540 1540 1540 1541 1543 1545 1544 1543 1544 1545
1485 1487 1497 1503 1509 1512 1502 1498 1484 1476 1473 1472 1469 1467 1466 1467 1468 1470 1473 1478 1482 1486 1491 1495 1499 1503 1506 1510 1512 1514 1516 1519 1520 1522 1523 1525 1528 1531 1532 1532 1536 1538 1541 1540 1539 1540 1540 1541 1541
1487 1489 1495 1494 1501 1500 1506 1492 1476 1473 1471 1471 1471 1468 1466 1466 1467 1469 1471 1474 1478 1483 1487 1491 1496 1500 1502 1506 1508 1510 1511 1513 1514 1516 1518 1520 1523 1524 1526 1528 1532 1533 1535 1536 1537 1536 1536 1534 1535
1476 1479 1484 1493 1499 1506 1505 1491 1469 1470 1471 1470 1468 1468 1467 1467 1468 1470 1471 1474 1477 1481 1485 1488 1492 1495 1499 1502 1504 1505 1506 1508 1508 1510 1512 1514 1517 1520 1522 1525 1527 1529 1526 1526 1527 1531 1531 1530 1529